Time,TemperatureF,DewpointF,PressureIn,WindDirection,WindDirectionDegrees,WindSpeedMPH,WindSpeedGustMPH,Humidity,HourlyPrecipIn,Conditions,Clouds,dailyrainin,SoftwareType,DateUTC
2013-01-12 00:02:00,35.7,29.0,30.11,West,270,0.0,0.0,75,0.00,,,0.00,weatherlink.com 1.10,2013-01-12 08:02:00,
2013-01-12 00:17:00,35.8,28.0,30.11,West,270,0.0,0.0,74,0.00,,,0.00,weatherlink.com 1.10,2013-01-12 08:17:00,
2013-01-12 00:32:00,35.9,28.0,30.11,West,270,0.0,1.0,74,0.00,,,0.00,weatherlink.com 1.10,2013-01-12 08:32:00,
2013-01-12 00:47:00,35.2,28.0,30.11,West,270,0.0,0.0,76,0.00,,,0.00,weatherlink.com 1.10,2013-01-12 08:47:00,
2013-01-12 01:02:00,34.5,28.0,30.12,West,270,0.0,0.0,78,0.00,,,0.00,weatherlink.com 1.10,2013-01-12 09:02:00,
2013-01-12 01:17:00,34.5,29.0,30.11,West,270,0.0,1.0,80,0.00,,,0.00,weatherlink.com 1.10,2013-01-12 09:17:00,
2013-01-12 01:32:00,36.9,26.0,30.11,North,354,0.0,2.0,65,0.00,,,0.00,weatherlink.com 1.10,2013-01-12 09:32:00,
2013-01-12 01:47:00,37.9,27.0,30.11,NNE,26,0.0,2.0,64,0.00,,,0.00,weatherlink.com 1.10,2013-01-12 09:47:00,
2013-01-12 02:02:00,38.4,26.0,30.11,North,356,1.0,2.0,61,0.00,,,0.00,weatherlink.com 1.10,2013-01-12 10:02:00,
2013-01-12 02:17:00,39.6,25.0,30.11,North,352,0.0,2.0,57,0.00,,,0.00,weatherlink.com 1.10,2013-01-12 10:17:00,
2013-01-12 02:33:00,39.0,27.0,30.11,North,352,0.0,0.0,62,0.00,,,0.00,weatherlink.com 1.10,2013-01-12 10:33:00,
2013-01-12 02:47:00,39.1,27.0,30.11,North,352,0.0,0.0,61,0.00,,,0.00,weatherlink.com 1.10,2013-01-12 10:47:00,
2013-01-12 03:02:00,38.4,27.0,30.11,North,352,0.0,0.0,64,0.00,,,0.00,weatherlink.com 1.10,2013-01-12 11:02:00,
2013-01-12 03:17:00,37.7,28.0,30.11,North,352,0.0,0.0,68,0.00,,,0.00,weatherlink.com 1.10,2013-01-12 11:17:00,
2013-01-12 03:32:00,36.8,27.0,30.11,North,352,0.0,0.0,69,0.00,,,0.00,weatherlink.com 1.10,2013-01-12 11:32:00,
2013-01-12 03:47:00,35.8,27.0,30.11,North,352,0.0,0.0,71,0.00,,,0.00,weatherlink.com 1.10,2013-01-12 11:47:00,
2013-01-12 04:02:00,34.9,27.0,30.10,North,352,0.0,0.0,74,0.00,,,0.00,weatherlink.com 1.10,2013-01-12 12:02:00,
2013-01-12 04:17:00,34.2,27.0,30.10,North,352,0.0,0.0,76,0.00,,,0.00,weatherlink.com 1.10,2013-01-12 12:17:00,
2013-01-12 04:33:00,33.7,28.0,30.10,North,352,0.0,0.0,79,0.00,,,0.00,weatherlink.com 1.10,2013-01-12 12:33:00,
2013-01-12 04:48:00,33.6,27.0,30.11,North,352,0.0,0.0,78,0.00,,,0.00,weatherlink.com 1.10,2013-01-12 12:48:00,
2013-01-12 05:02:00,33.5,26.0,30.11,North,352,0.0,0.0,74,0.00,,,0.00,weatherlink.com 1.10,2013-01-12 13:02:00,
2013-01-12 05:18:00,33.7,27.0,30.11,North,352,0.0,1.0,75,0.00,,,0.00,weatherlink.com 1.10,2013-01-12 13:18:00,
2013-01-12 05:33:00,33.3,26.0,30.11,North,352,0.0,0.0,74,0.00,,,0.00,weatherlink.com 1.10,2013-01-12 13:33:00,
2013-01-12 05:48:00,33.1,25.0,30.12,North,352,0.0,0.0,73,0.00,,,0.00,weatherlink.com 1.10,2013-01-12 13:48:00,
2013-01-12 06:03:00,33.2,25.0,30.13,North,352,0.0,0.0,73,0.00,,,0.00,weatherlink.com 1.10,2013-01-12 14:03:00,
2013-01-12 06:18:00,34.0,25.0,30.14,NW,307,0.0,0.0,69,0.00,,,0.00,weatherlink.com 1.10,2013-01-12 14:18:00,
2013-01-12 06:33:00,33.1,26.0,30.14,NW,306,0.0,0.0,75,0.00,,,0.00,weatherlink.com 1.10,2013-01-12 14:33:00,
2013-01-12 06:48:00,32.5,25.0,30.15,NW,306,0.0,0.0,75,0.00,,,0.00,weatherlink.com 1.10,2013-01-12 14:48:00,
2013-01-12 07:03:00,32.1,25.0,30.16,NW,306,0.0,0.0,76,0.00,,,0.00,weatherlink.com 1.10,2013-01-12 15:03:00,
2013-01-12 07:18:00,31.9,26.0,30.16,NW,305,0.0,0.0,78,0.00,,,0.00,weatherlink.com 1.10,2013-01-12 15:18:00,
2013-01-12 07:33:00,32.6,27.0,30.16,NW,307,0.0,0.0,79,0.00,,,0.00,weatherlink.com 1.10,2013-01-12 15:33:00,
2013-01-12 07:48:00,34.5,28.0,30.17,NW,304,0.0,0.0,76,0.00,,,0.00,weatherlink.com 1.10,2013-01-12 15:48:00,
2013-01-12 08:03:00,41.1,27.0,30.17,NW,308,0.0,1.0,57,0.00,,,0.00,weatherlink.com 1.10,2013-01-12 16:03:00,
2013-01-12 08:18:00,45.5,25.0,30.18,NW,306,0.0,0.0,45,0.00,,,0.00,weatherlink.com 1.10,2013-01-12 16:18:00,
2013-01-12 08:33:00,45.0,24.0,30.18,NW,315,0.0,1.0,44,0.00,,,0.00,weatherlink.com 1.10,2013-01-12 16:33:00,
2013-01-12 08:48:00,45.3,24.0,30.18,ENE,58,0.0,1.0,43,0.00,,,0.00,weatherlink.com 1.10,2013-01-12 16:48:00,
2013-01-12 09:03:00,46.4,24.0,30.18,SSW,200,0.0,1.0,42,0.00,,,0.00,weatherlink.com 1.10,2013-01-12 17:03:00,
2013-01-12 09:18:00,47.3,26.0,30.18,SE,145,0.0,2.0,43,0.00,,,0.00,weatherlink.com 1.10,2013-01-12 17:18:00,
2013-01-12 09:33:00,47.8,24.0,30.19,South,172,0.0,3.0,40,0.00,,,0.00,weatherlink.com 1.10,2013-01-12 17:33:00,
2013-01-12 09:48:00,48.9,23.0,30.19,SSW,202,0.0,2.0,36,0.00,,,0.00,weatherlink.com 1.10,2013-01-12 17:48:00,
2013-01-12 10:03:00,50.3,25.0,30.19,South,170,0.0,2.0,37,0.00,,,0.00,weatherlink.com 1.10,2013-01-12 18:03:00,
2013-01-12 10:18:00,52.1,24.0,30.19,South,170,0.0,4.0,33,0.00,,,0.00,weatherlink.com 1.10,2013-01-12 18:18:00,
2013-01-12 10:33:00,53.1,24.0,30.19,North,352,0.0,4.0,32,0.00,,,0.00,weatherlink.com 1.10,2013-01-12 18:33:00,
2013-01-12 10:48:00,53.2,25.0,30.18,SSE,160,1.0,1.0,33,0.00,,,0.00,weatherlink.com 1.10,2013-01-12 18:48:00,
2013-01-12 11:03:00,54.1,22.0,30.18,South,179,2.0,4.0,29,0.00,,,0.00,weatherlink.com 1.10,2013-01-12 19:03:00,
2013-01-12 11:19:00,54.4,22.0,30.17,South,180,0.0,4.0,28,0.00,,,0.00,weatherlink.com 1.10,2013-01-12 19:19:00,
2013-01-12 11:49:00,56.2,22.0,30.15,SSE,164,1.0,4.0,26,0.00,,,0.00,weatherlink.com 1.10,2013-01-12 19:49:00,
2013-01-12 12:04:00,55.9,21.0,30.14,SW,225,0.0,6.0,26,0.00,,,0.00,weatherlink.com 1.10,2013-01-12 20:04:00,
2013-01-12 12:19:00,56.2,23.0,30.14,South,172,1.0,4.0,28,0.00,,,0.00,weatherlink.com 1.10,2013-01-12 20:19:00,
2013-01-12 12:34:00,56.8,26.0,30.13,West,280,0.0,5.0,30,0.00,,,0.00,weatherlink.com 1.10,2013-01-12 20:34:00,
2013-01-12 12:49:00,56.7,26.0,30.13,SSE,159,0.0,6.0,31,0.00,,,0.00,weatherlink.com 1.10,2013-01-12 20:49:00,
2013-01-12 13:04:00,56.7,28.0,30.13,SSE,163,0.0,5.0,33,0.00,,,0.00,weatherlink.com 1.10,2013-01-12 21:04:00,
2013-01-12 13:19:00,56.3,28.0,30.13,SW,217,0.0,5.0,34,0.00,,,0.00,weatherlink.com 1.10,2013-01-12 21:19:00,
2013-01-12 13:34:00,55.2,29.0,30.12,WSW,250,1.0,8.0,37,0.00,,,0.00,weatherlink.com 1.10,2013-01-12 21:34:00,
2013-01-12 13:49:00,55.0,31.0,30.12,South,176,4.0,6.0,40,0.00,,,0.00,weatherlink.com 1.10,2013-01-12 21:49:00,
2013-01-12 14:04:00,55.0,30.0,30.12,South,191,1.0,5.0,38,0.00,,,0.00,weatherlink.com 1.10,2013-01-12 22:04:00,
2013-01-12 14:19:00,54.5,30.0,30.12,SSW,198,3.0,4.0,40,0.00,,,0.00,weatherlink.com 1.10,2013-01-12 22:19:00,
2013-01-12 14:34:00,54.9,30.0,30.12,South,189,0.0,3.0,39,0.00,,,0.00,weatherlink.com 1.10,2013-01-12 22:34:00,
2013-01-12 14:49:00,54.3,29.0,30.12,West,273,0.0,8.0,38,0.00,,,0.00,weatherlink.com 1.10,2013-01-12 22:49:00,
2013-01-12 15:04:00,53.9,28.0,30.12,SSE,162,0.0,-999.0,37,-99.99,,,0.00,weatherlink.com 1.10,2013-01-12 23:04:00,
2013-01-12 15:19:00,53.0,28.0,30.12,SSE,160,3.0,4.0,39,0.00,,,0.00,weatherlink.com 1.10,2013-01-12 23:19:00,
2013-01-12 15:34:00,52.3,28.0,30.12,WSW,252,0.0,5.0,39,0.00,,,0.00,weatherlink.com 1.10,2013-01-12 23:34:00,
2013-01-12 15:49:00,51.7,28.0,30.12,South,173,1.0,5.0,40,0.00,,,0.00,weatherlink.com 1.10,2013-01-12 23:49:00,
2013-01-12 16:04:00,51.2,29.0,30.12,South,169,0.0,2.0,42,0.00,,,0.00,weatherlink.com 1.10,2013-01-13 00:04:00,
2013-01-12 16:19:00,50.6,29.0,30.12,SSE,165,1.0,2.0,43,0.00,,,0.00,weatherlink.com 1.10,2013-01-13 00:19:00,
2013-01-12 16:34:00,49.9,29.0,30.13,South,171,0.0,3.0,44,0.00,,,0.00,weatherlink.com 1.10,2013-01-13 00:34:00,
2013-01-12 16:49:00,49.0,30.0,30.13,SSW,203,0.0,3.0,48,0.00,,,0.00,weatherlink.com 1.10,2013-01-13 00:49:00,
2013-01-12 17:04:00,48.0,30.0,30.13,SSW,203,0.0,1.0,50,0.00,,,0.00,weatherlink.com 1.10,2013-01-13 01:04:00,
2013-01-12 17:19:00,46.5,31.0,30.13,SSW,203,0.0,0.0,55,0.00,,,0.00,weatherlink.com 1.10,2013-01-13 01:19:00,
2013-01-12 17:34:00,45.3,32.0,30.14,SSW,203,0.0,0.0,59,0.00,,,0.00,weatherlink.com 1.10,2013-01-13 01:34:00,
2013-01-12 17:49:00,44.4,32.0,30.14,SSW,203,0.0,0.0,61,0.00,,,0.00,weatherlink.com 1.10,2013-01-13 01:49:00,
2013-01-12 18:04:00,43.6,32.0,30.14,SSW,203,0.0,0.0,64,0.00,,,0.00,weatherlink.com 1.10,2013-01-13 02:04:00,
2013-01-12 18:19:00,42.7,32.0,30.14,SSW,203,0.0,0.0,67,0.00,,,0.00,weatherlink.com 1.10,2013-01-13 02:19:00,
2013-01-12 18:34:00,42.0,32.0,30.14,SSW,203,0.0,0.0,69,0.00,,,0.00,weatherlink.com 1.10,2013-01-13 02:34:00,
2013-01-12 18:49:00,41.3,32.0,30.14,SSW,203,0.0,0.0,70,0.00,,,0.00,weatherlink.com 1.10,2013-01-13 02:49:00,
2013-01-12 19:04:00,42.7,31.0,30.14,NNW,338,1.0,1.0,64,0.00,,,0.00,weatherlink.com 1.10,2013-01-13 03:04:00,
2013-01-12 19:19:00,42.9,31.0,30.14,North,354,0.0,1.0,62,0.00,,,0.00,weatherlink.com 1.10,2013-01-13 03:19:00,
2013-01-12 19:34:00,42.3,30.0,30.14,North,354,0.0,0.0,62,0.00,,,0.00,weatherlink.com 1.10,2013-01-13 03:34:00,
2013-01-12 19:49:00,41.9,29.0,30.14,North,1,0.0,1.0,61,0.00,,,0.00,weatherlink.com 1.10,2013-01-13 03:49:00,
2013-01-12 20:04:00,42.7,29.0,30.14,North,4,2.0,3.0,58,0.00,,,0.00,weatherlink.com 1.10,2013-01-13 04:04:00,
2013-01-12 20:19:00,42.7,29.0,30.14,North,356,2.0,2.0,58,0.00,,,0.00,weatherlink.com 1.10,2013-01-13 04:19:00,
2013-01-12 20:34:00,42.4,29.0,30.14,North,9,2.0,2.0,60,0.00,,,0.00,weatherlink.com 1.10,2013-01-13 04:34:00,
2013-01-12 20:49:00,42.2,29.0,30.14,North,4,0.0,2.0,61,0.00,,,0.00,weatherlink.com 1.10,2013-01-13 04:49:00,
2013-01-12 21:04:00,41.4,30.0,30.14,North,4,0.0,0.0,64,0.00,,,0.00,weatherlink.com 1.10,2013-01-13 05:04:00,
2013-01-12 21:19:00,39.9,30.0,30.14,North,4,0.0,0.0,68,0.00,,,0.00,weatherlink.com 1.10,2013-01-13 05:19:00,
2013-01-12 21:34:00,38.9,30.0,30.14,North,4,0.0,0.0,71,0.00,,,0.00,weatherlink.com 1.10,2013-01-13 05:34:00,
2013-01-12 21:49:00,38.5,30.0,30.14,North,4,0.0,0.0,72,0.00,,,0.00,weatherlink.com 1.10,2013-01-13 05:49:00,
2013-01-12 22:04:00,37.7,30.0,30.14,North,4,0.0,0.0,75,0.00,,,0.00,weatherlink.com 1.10,2013-01-13 06:04:00,
2013-01-12 22:19:00,37.2,30.0,30.14,North,4,0.0,0.0,76,0.00,,,0.00,weatherlink.com 1.10,2013-01-13 06:19:00,
2013-01-12 22:34:00,36.5,30.0,30.14,North,4,0.0,0.0,78,0.00,,,0.00,weatherlink.com 1.10,2013-01-13 06:34:00,
2013-01-12 22:49:00,36.8,31.0,30.14,North,4,0.0,0.0,78,0.00,,,0.00,weatherlink.com 1.10,2013-01-13 06:49:00,
2013-01-12 23:04:00,36.5,31.0,30.14,North,4,0.0,0.0,79,0.00,,,0.00,weatherlink.com 1.10,2013-01-13 07:04:00,
2013-01-12 23:19:00,36.1,30.0,30.14,North,4,0.0,0.0,79,0.00,,,0.00,weatherlink.com 1.10,2013-01-13 07:19:00,
2013-01-12 23:34:00,35.8,30.0,30.14,North,4,0.0,0.0,78,0.00,,,0.00,weatherlink.com 1.10,2013-01-13 07:34:00,
2013-01-12 23:49:00,35.8,30.0,30.14,North,4,0.0,0.0,79,0.00,,,0.00,weatherlink.com 1.10,2013-01-13 07:49:00,